When you browse on this site, cookies collect data to enhance your experience and personalize the content and advertising you see.
Visit our Privacy Policy to learn more. By continuing to use the site, you agree to this use of cookies and data.
  • In Hungary
  • List of Countries
  • For 7 days
  • Water Temperature
  • Weather Map
  • News
  • Weather Widgets
  • user-avatar
    Login

    Hourly Weather Vasilevo-Hanzhonovka

    Today, 18 October, Friday

    Time Temperature Precipitation Wind Pressure Humidity
    00:00 +14°C° 0 mm 4 mps 761 mmHg 70%
    01:00 +14°C° 0 mm 4 mps 761 mmHg 73%
    02:00 +13°C° 0 mm 4 mps 761 mmHg 76%
    03:00 +13°C° 0 mm 4 mps 761 mmHg 78%
    04:00 +12°C° 0 mm 3 mps 761 mmHg 80%
    05:00 +12°C° 0 mm 3 mps 761 mmHg 82%
    06:00 +11°C° 0 mm 3 mps 761 mmHg 84%
    07:00 +12°C° 0 mm 3 mps 761 mmHg 81%
    08:00 +13°C° 0 mm 3 mps 761 mmHg 78%
    09:00 +13°C° 0 mm 3 mps 761 mmHg 75%
    10:00 +16°C° 0 mm 3 mps 761 mmHg 69%
    11:00 +17°C° 0 mm 3 mps 761 mmHg 63%
    12:00 +19°C° 0 mm 3 mps 761 mmHg 58%
    13:00 +20°C° 0 mm 2 mps 761 mmHg 55%
    14:00 +20°C° 0 mm 2 mps 760 mmHg 52%
    15:00 +22°C° 0 mm 1 mps 760 mmHg 50%
    16:00 +21°C° 0 mm 1 mps 760 mmHg 53%
    17:00 +20°C° 0 mm 1 mps 760 mmHg 57%
    18:00 +19°C° 0 mm 1 mps 760 mmHg 60%
    19:00 +19°C° 0 mm 1 mps 760 mmHg 62%
    20:00 +17°C° 0 mm 2 mps 760 mmHg 64%
    21:00 +17°C° 0 mm 2 mps 760 mmHg 66%
    22:00 +16°C° 0 mm 2 mps 760 mmHg 67%
    23:00 +16°C° 0 mm 3 mps 760 mmHg 69%

    Tomorrow, 19 October, Saturday

    Time Temperature Precipitation Wind Pressure Humidity
    00:00 +14°C° 0 mm 3 mps 760 mmHg 70%
    01:00 +14°C° 0 mm 3 mps 761 mmHg 70%
    02:00 +14°C° 0 mm 3 mps 761 mmHg 70%
    03:00 +13°C° 0 mm 3 mps 761 mmHg 70%
    04:00 +13°C° 0 mm 3 mps 761 mmHg 70%
    05:00 +13°C° 0 mm 3 mps 761 mmHg 70%
    06:00 +12°C° 0 mm 3 mps 761 mmHg 71%
    07:00 +13°C° 0 mm 3 mps 762 mmHg 67%
    08:00 +14°C° 0 mm 4 mps 762 mmHg 63%
    09:00 +15°C° 0 mm 4 mps 762 mmHg 59%
    10:00 +18°C° 0 mm 4 mps 762 mmHg 54%
    11:00 +19°C° 0 mm 3 mps 762 mmHg 49%
    12:00 +21°C° 0 mm 3 mps 762 mmHg 44%
    13:00 +21°C° 0 mm 3 mps 762 mmHg 42%
    14:00 +22°C° 0 mm 3 mps 762 mmHg 40%
    15:00 +24°C° 0 mm 3 mps 762 mmHg 38%
    16:00 +21°C° 0 mm 3 mps 762 mmHg 42%
    17:00 +20°C° 0 mm 3 mps 762 mmHg 45%
    18:00 +19°C° 0 mm 2 mps 762 mmHg 48%
    19:00 +18°C° 0 mm 3 mps 763 mmHg 50%
    20:00 +18°C° 0 mm 3 mps 763 mmHg 52%
    21:00 +17°C° 0 mm 4 mps 763 mmHg 54%
    22:00 +17°C° 0 mm 4 mps 763 mmHg 55%
    23:00 +15°C° 0 mm 4 mps 763 mmHg 57%

    Day after tomorrow, 20 October, Sunday

    Time Temperature Precipitation Wind Pressure Humidity
    00:00 +15°C° 0 mm 4 mps 763 mmHg 58%
    01:00 +14°C° 0 mm 4 mps 763 mmHg 60%
    02:00 +14°C° 0 mm 4 mps 764 mmHg 62%
    03:00 +13°C° 0 mm 4 mps 764 mmHg 63%
    04:00 +13°C° 0 mm 4 mps 764 mmHg 64%
    05:00 +12°C° 0 mm 4 mps 764 mmHg 65%
    06:00 +12°C° 0 mm 4 mps 764 mmHg 66%
    07:00 +13°C° 0 mm 4 mps 765 mmHg 63%
    08:00 +14°C° 0 mm 4 mps 765 mmHg 61%
    09:00 +15°C° 0 mm 5 mps 765 mmHg 58%
    10:00 +16°C° 0 mm 5 mps 765 mmHg 53%
    11:00 +19°C° 0 mm 5 mps 765 mmHg 48%
    12:00 +21°C° 0 mm 5 mps 765 mmHg 43%
    13:00 +22°C° 0 mm 5 mps 765 mmHg 42%
    14:00 +22°C° 0 mm 5 mps 765 mmHg 40%
    15:00 +23°C° 0 mm 5 mps 764 mmHg 39%
    16:00 +21°C° 0 mm 5 mps 764 mmHg 42%
    17:00 +20°C° 0 mm 4 mps 764 mmHg 45%
    18:00 +19°C° 0 mm 4 mps 764 mmHg 49%
    19:00 +18°C° 0 mm 4 mps 765 mmHg 50%
    20:00 +18°C° 0 mm 4 mps 765 mmHg 52%
    21:00 +16°C° 0 mm 5 mps 765 mmHg 54%
    22:00 +17°C° 0 mm 4 mps 765 mmHg 56%
    23:00 +15°C° 0 mm 4 mps 765 mmHg 58%

    21 October, Monday

    Time Temperature Precipitation Wind Pressure Humidity
    00:00 +14°C° 0 mm 4 mps 765 mmHg 60%
    01:00 +14°C° 0 mm 4 mps 765 mmHg 62%
    02:00 +14°C° 0 mm 4 mps 765 mmHg 64%
    03:00 +13°C° 0 mm 4 mps 765 mmHg 65%
    04:00 +13°C° 0 mm 4 mps 765 mmHg 66%
    05:00 +12°C° 0 mm 4 mps 765 mmHg 68%
    06:00 +12°C° 0 mm 4 mps 765 mmHg 69%
    07:00 +13°C° 0 mm 5 mps 766 mmHg 66%
    08:00 +14°C° 0 mm 5 mps 766 mmHg 63%
    09:00 +15°C° 0 mm 5 mps 766 mmHg 61%
    10:00 +16°C° 0 mm 5 mps 766 mmHg 55%
    11:00 +19°C° 0 mm 5 mps 766 mmHg 50%
    12:00 +20°C° 0 mm 5 mps 766 mmHg 44%
    13:00 +21°C° 0 mm 5 mps 765 mmHg 43%
    14:00 +21°C° 0 mm 5 mps 765 mmHg 41%
    15:00 +22°C° 0 mm 5 mps 765 mmHg 39%
    16:00 +21°C° 0 mm 5 mps 765 mmHg 42%
    17:00 +20°C° 0 mm 4 mps 765 mmHg 45%
    18:00 +18°C° 0 mm 4 mps 765 mmHg 49%
    19:00 +18°C° 0 mm 4 mps 765 mmHg 52%
    20:00 +17°C° 0 mm 4 mps 765 mmHg 55%
    21:00 +15°C° 0 mm 4 mps 765 mmHg 58%
    22:00 +15°C° 0 mm 4 mps 765 mmHg 61%
    23:00 +14°C° 0 mm 4 mps 765 mmHg 63%

    22 October, Tuesday

    Time Temperature Precipitation Wind Pressure Humidity
    00:00 +14°C° 0 mm 4 mps 765 mmHg 66%
    01:00 +13°C° 0 mm 4 mps 765 mmHg 67%
    02:00 +13°C° 0 mm 4 mps 765 mmHg 69%
    03:00 +12°C° 0 mm 4 mps 764 mmHg 70%
    04:00 +12°C° 0 mm 4 mps 764 mmHg 71%
    05:00 +11°C° 0 mm 4 mps 764 mmHg 73%
    06:00 +11°C° 0 mm 3 mps 764 mmHg 74%
    07:00 +12°C° 0 mm 4 mps 764 mmHg 70%
    08:00 +12°C° 0 mm 4 mps 764 mmHg 67%
    09:00 +13°C° 0 mm 4 mps 764 mmHg 63%
    10:00 +15°C° 0 mm 4 mps 764 mmHg 57%
    11:00 +17°C° 0 mm 4 mps 764 mmHg 50%
    12:00 +19°C° 0 mm 4 mps 764 mmHg 44%
    13:00 +20°C° 0 mm 3 mps 764 mmHg 42%
    14:00 +20°C° 0 mm 3 mps 763 mmHg 39%
    15:00 +21°C° 0 mm 2 mps 763 mmHg 37%
    16:00 +19°C° 0 mm 2 mps 763 mmHg 40%
    17:00 +18°C° 0 mm 2 mps 762 mmHg 42%
    18:00 +18°C° 0 mm 1 mps 762 mmHg 45%
    19:00 +18°C° 0 mm 1 mps 762 mmHg 46%
    20:00 +16°C° 0 mm 1 mps 762 mmHg 48%
    21:00 +16°C° 0 mm 1 mps 762 mmHg 49%
    22:00 +15°C° 0 mm 1 mps 762 mmHg 50%
    23:00 +15°C° 0 mm 1 mps 762 mmHg 51%

    23 October, Wednesday

    Time Temperature Precipitation Wind Pressure Humidity
    00:00 +15°C° 0 mm 1 mps 762 mmHg 53%
    01:00 +14°C° 0 mm 1 mps 762 mmHg 54%
    02:00 +14°C° 0 mm 1 mps 762 mmHg 55%
    03:00 +14°C° 0 mm 1 mps 763 mmHg 56%
    04:00 +14°C° 0 mm 2 mps 763 mmHg 58%
    05:00 +13°C° 0 mm 2 mps 763 mmHg 60%
    06:00 +13°C° 0 mm 2 mps 763 mmHg 62%
    07:00 +13°C° 0 mm 3 mps 763 mmHg 63%
    08:00 +14°C° 0 mm 4 mps 763 mmHg 64%
    09:00 +14°C° 0 mm 4 mps 764 mmHg 65%
    10:00 +17°C° 0 mm 4 mps 764 mmHg 64%
    11:00 +18°C° 0 mm 4 mps 764 mmHg 62%
    12:00 +19°C° 0 mm 4 mps 764 mmHg 61%
    13:00 +19°C° 0 mm 4 mps 764 mmHg 59%
    14:00 +19°C° 0 mm 4 mps 764 mmHg 58%
    15:00 +19°C° 0 mm 3 mps 764 mmHg 57%
    16:00 +18°C° 0 mm 4 mps 764 mmHg 58%
    17:00 +17°C° 0 mm 4 mps 764 mmHg 59%
    18:00 +17°C° 0 mm 4 mps 764 mmHg 60%
    19:00 +15°C° 0 mm 4 mps 765 mmHg 63%
    20:00 +14°C° 0 mm 4 mps 765 mmHg 66%
    21:00 +14°C° 0 mm 5 mps 765 mmHg 68%
    22:00 +13°C° 0 mm 5 mps 765 mmHg 68%
    23:00 +13°C° 0 mm 5 mps 765 mmHg 67%
    Show more